Airfield :
LOGIN :

Register | Disclaimer

   EN    FR    IT 

 










Legend :    VFR   Marginal VFR   IFR   Intensive IFR   Very Intensive IFR
Visi :
Ceiling :
>= 8 km
>= 3000ft
5 to 8 km
1000 to 3000 ft
1500m to 5 km
500 to 1000 ft
800 to 1500m
200 to 500 ft
< 800m
< 200 ft
Symbols :   Thunderstorms  Fog  Heavy snow  Heavy precipitations  Wind > 20 kt
SIGMETs :     Misc.  Thunderstorms  Icing  Turbulence  Mountain Waves  Volcanic Ashes






- Airport Elevation : 2265 ft
- IATA code : CZL


DABC - Mohamed Boudiaf Int. Constantine

CURRENT METAR :
  • 221000Z 01005KT 330V040 9999 FEW040 BKN200 17/08 Q1015

EXPIRED METARs :
  • 220900Z 03003KT 310V090 9999 FEW040 BKN200 17/06 Q1015
  • 220800Z 34007KT 310V010 9999 FEW040 BKN200 15/06 Q1015

TAF COR TAF DABC
Valid from the 22 at 07:00 until the 23 at 06:00 UTC


220700Z 2207/2306 24009KT 9999 SCT040 SCT090
PROB40
TEMPO 2208/2215 FEW026TCU
BECMG 2210/2212 35010KT
PROB40
TEMPO 2215/2224 5000 -RA FEW023CB
BECMG 2221/2223 VRB02KT



MET'MAP, your aeronautical weather chart ! - Copyright ORBIFLY December 2007 - Disclaimer

ORBIFLY MET'MAP TEAM :

Programming & Development : Alexandra Zaïnal
Concept & original design : Baudouin d'Aumeries
Assistance for programming : Marc-Olivier Méhu
Technical & hardware support : Manuel Goepfert

Contact : metmap@orbifly.com




SOURCES & CREDITS :

   NOAA